Time,TemperatureF,DewpointF,PressureIn,WindDirection,WindDirectionDegrees,WindSpeedMPH,WindSpeedGustMPH,Humidity,HourlyPrecipIn,Conditions,Clouds,dailyrainin,SolarRadiationWatts/m^2,SoftwareType,DateUTC
2013-01-08 00:04:00,26.0,21.0,-100.00,South,177,6.0,13.0,80,0.00,,,0.02,0.000000,,2013-01-08 05:04:00,
2013-01-08 00:33:00,25.0,20.0,-100.00,South,177,6.0,12.0,81,0.00,,,0.02,0.000000,,2013-01-08 05:33:00,
2013-01-08 00:43:00,25.0,20.0,-100.00,South,177,6.0,12.0,81,0.00,,,0.02,0.000000,,2013-01-08 05:43:00,
2013-01-08 00:53:00,25.0,20.0,-100.00,South,177,6.0,12.0,81,0.00,,,0.02,0.000000,,2013-01-08 05:53:00,
2013-01-08 01:02:00,25.0,20.0,-100.00,South,177,6.0,12.0,81,0.00,,,0.02,0.000000,,2013-01-08 06:02:00,
2013-01-08 01:33:00,24.0,20.0,-100.00,SSE,168,5.0,10.0,83,0.00,,,0.02,0.000000,,2013-01-08 06:33:00,
2013-01-08 01:43:00,24.0,20.0,-100.00,SSE,168,5.0,10.0,83,0.00,,,0.02,0.000000,,2013-01-08 06:43:00,
2013-01-08 01:53:00,24.0,20.0,-100.00,SSE,168,5.0,10.0,83,0.00,,,0.02,0.000000,,2013-01-08 06:53:00,
2013-01-08 02:02:00,24.0,20.0,-100.00,SSE,168,5.0,10.0,83,0.00,,,0.02,0.000000,,2013-01-08 07:02:00,
2013-01-08 02:32:00,24.0,20.0,-100.00,SSE,151,4.0,13.0,85,0.00,,,0.02,0.000000,,2013-01-08 07:32:00,
2013-01-08 02:42:00,24.0,20.0,-100.00,SSE,151,4.0,13.0,85,0.00,,,0.02,0.000000,,2013-01-08 07:42:00,
2013-01-08 02:52:00,24.0,20.0,-100.00,SSE,151,4.0,13.0,85,0.00,,,0.02,0.000000,,2013-01-08 07:52:00,
2013-01-08 03:02:00,24.0,20.0,-100.00,SSE,151,4.0,13.0,85,0.00,,,0.02,0.000000,,2013-01-08 08:02:00,
2013-01-08 03:32:00,24.0,20.0,-100.00,SE,124,4.0,8.0,85,0.00,,,0.02,0.000000,,2013-01-08 08:32:00,
2013-01-08 03:42:00,24.0,20.0,-100.00,SE,124,4.0,8.0,85,0.00,,,0.02,0.000000,,2013-01-08 08:42:00,
2013-01-08 03:53:00,24.0,20.0,-100.00,SE,124,4.0,8.0,85,0.00,,,0.02,0.000000,,2013-01-08 08:53:00,
2013-01-08 04:02:00,24.0,20.0,-100.00,SE,124,4.0,8.0,85,0.00,,,0.02,0.000000,,2013-01-08 09:02:00,
2013-01-08 04:33:00,22.0,19.0,-100.00,SE,143,2.0,5.0,88,0.00,,,0.02,0.000000,,2013-01-08 09:33:00,
2013-01-08 04:42:00,22.0,19.0,-100.00,SE,143,2.0,5.0,88,0.00,,,0.02,0.000000,,2013-01-08 09:42:00,
2013-01-08 04:53:00,22.0,19.0,-100.00,SE,143,2.0,5.0,88,0.00,,,0.02,0.000000,,2013-01-08 09:53:00,
2013-01-08 05:02:00,22.0,19.0,-100.00,SE,143,2.0,5.0,88,0.00,,,0.02,0.000000,,2013-01-08 10:02:00,
2013-01-08 05:33:00,24.0,19.0,-100.00,SSE,148,3.0,7.0,82,0.00,,,0.02,0.000000,,2013-01-08 10:33:00,
2013-01-08 05:43:00,24.0,19.0,-100.00,SSE,148,3.0,7.0,82,0.00,,,0.02,0.000000,,2013-01-08 10:43:00,
2013-01-08 05:53:00,24.0,19.0,-100.00,SSE,148,3.0,7.0,82,0.00,,,0.02,0.000000,,2013-01-08 10:53:00,
2013-01-08 06:02:00,24.0,19.0,-100.00,SSE,148,3.0,7.0,82,0.00,,,0.02,0.000000,,2013-01-08 11:02:00,
2013-01-08 06:33:00,23.0,19.0,-100.00,SE,130,2.0,8.0,84,0.00,,,0.02,0.000000,,2013-01-08 11:33:00,
2013-01-08 06:43:00,23.0,19.0,-100.00,SE,130,2.0,8.0,84,0.00,,,0.02,0.000000,,2013-01-08 11:43:00,
2013-01-08 06:53:00,23.0,19.0,-100.00,SE,130,2.0,8.0,84,0.00,,,0.02,0.000000,,2013-01-08 11:53:00,
2013-01-08 07:03:00,23.0,19.0,-100.00,SE,130,2.0,8.0,84,0.00,,,0.02,0.000000,,2013-01-08 12:03:00,
2013-01-08 07:33:00,20.0,17.0,-100.00,SSE,167,0.0,4.0,88,0.00,,,0.02,0.000000,,2013-01-08 12:33:00,
2013-01-08 07:43:00,20.0,17.0,-100.00,SSE,167,0.0,4.0,88,0.00,,,0.02,0.000000,,2013-01-08 12:43:00,
2013-01-08 07:53:00,20.0,17.0,-100.00,SSE,167,0.0,4.0,88,0.00,,,0.02,0.000000,,2013-01-08 12:53:00,
2013-01-08 08:03:00,20.0,17.0,-100.00,SSE,167,0.0,4.0,88,0.00,,,0.02,0.000000,,2013-01-08 13:03:00,
2013-01-08 08:33:00,20.0,17.0,-100.00,SSE,149,1.0,5.0,89,0.00,,,0.02,2.000000,,2013-01-08 13:33:00,
2013-01-08 08:43:00,20.0,17.0,-100.00,SSE,149,1.0,5.0,89,0.00,,,0.02,2.000000,,2013-01-08 13:43:00,
2013-01-08 08:53:00,20.0,17.0,-100.00,SSE,149,1.0,5.0,89,0.00,,,0.02,2.000000,,2013-01-08 13:53:00,
2013-01-08 09:03:00,20.0,17.0,-100.00,SSE,149,1.0,5.0,89,0.00,,,0.02,2.000000,,2013-01-08 14:03:00,
2013-01-08 09:33:00,25.0,21.0,-100.00,SSE,166,3.0,6.0,83,0.00,,,0.02,15.000000,,2013-01-08 14:33:00,
2013-01-08 09:43:00,25.0,21.0,-100.00,SSE,166,3.0,6.0,83,0.00,,,0.02,15.000000,,2013-01-08 14:43:00,
2013-01-08 09:53:00,25.0,21.0,-100.00,SSE,166,3.0,6.0,83,0.00,,,0.02,15.000000,,2013-01-08 14:53:00,
2013-01-08 10:03:00,25.0,21.0,-100.00,SSE,166,3.0,6.0,83,0.00,,,0.02,15.000000,,2013-01-08 15:03:00,
2013-01-08 10:33:00,33.0,22.0,-100.00,South,185,3.0,8.0,64,0.00,,,0.02,48.000000,,2013-01-08 15:33:00,
2013-01-08 10:43:00,33.0,22.0,-100.00,South,185,3.0,8.0,64,0.00,,,0.02,48.000000,,2013-01-08 15:43:00,
2013-01-08 10:53:00,33.0,22.0,-100.00,South,185,3.0,8.0,64,0.00,,,0.02,48.000000,,2013-01-08 15:53:00,
2013-01-08 11:03:00,33.0,22.0,-100.00,South,185,3.0,8.0,64,0.00,,,0.02,48.000000,,2013-01-08 16:03:00,
2013-01-08 11:34:00,38.0,23.0,-100.00,West,268,3.0,9.0,55,0.02,,,0.04,121.000000,,2013-01-08 16:34:00,
2013-01-08 11:43:00,38.0,23.0,-100.00,West,268,3.0,9.0,55,0.02,,,0.04,121.000000,,2013-01-08 16:43:00,
2013-01-08 11:53:00,38.0,23.0,-100.00,West,268,3.0,9.0,55,0.02,,,0.04,121.000000,,2013-01-08 16:53:00,
2013-01-08 12:03:00,38.0,23.0,-100.00,West,268,3.0,9.0,55,0.02,,,0.04,121.000000,,2013-01-08 17:03:00,
2013-01-08 12:34:00,42.0,23.0,-100.00,SW,236,3.0,6.0,47,0.03,,,0.07,493.000000,,2013-01-08 17:34:00,
2013-01-08 12:43:00,42.0,23.0,-100.00,SW,236,3.0,6.0,47,0.03,,,0.07,493.000000,,2013-01-08 17:43:00,
2013-01-08 12:54:00,42.0,23.0,-100.00,SW,236,3.0,6.0,47,0.03,,,0.07,493.000000,,2013-01-08 17:54:00,
2013-01-08 13:04:00,42.0,23.0,-100.00,SW,236,3.0,6.0,47,0.03,,,0.07,493.000000,,2013-01-08 18:04:00,
2013-01-08 13:33:00,46.0,22.0,-100.00,SW,225,3.0,8.0,39,0.04,,,0.10,510.000000,,2013-01-08 18:33:00,
2013-01-08 13:43:00,46.0,22.0,-100.00,SW,225,3.0,8.0,39,0.04,,,0.10,510.000000,,2013-01-08 18:43:00,
2013-01-08 13:53:00,46.0,22.0,-100.00,SW,225,3.0,8.0,39,0.04,,,0.10,510.000000,,2013-01-08 18:53:00,
2013-01-08 14:03:00,46.0,22.0,-100.00,SW,225,3.0,8.0,39,0.04,,,0.10,510.000000,,2013-01-08 19:03:00,
2013-01-08 14:33:00,46.0,19.0,-100.00,West,275,2.0,8.0,34,0.06,,,0.15,448.000000,,2013-01-08 19:33:00,
2013-01-08 14:43:00,46.0,19.0,-100.00,West,275,2.0,8.0,34,0.06,,,0.15,448.000000,,2013-01-08 19:43:00,
2013-01-08 14:53:00,46.0,19.0,-100.00,West,275,2.0,8.0,34,0.06,,,0.15,448.000000,,2013-01-08 19:53:00,
2013-01-08 15:03:00,46.0,19.0,-100.00,West,275,2.0,8.0,34,0.06,,,0.15,448.000000,,2013-01-08 20:03:00,
2013-01-08 15:33:00,44.0,19.0,-100.00,SW,222,4.0,8.0,36,0.08,,,0.23,287.000000,,2013-01-08 20:33:00,
2013-01-08 15:43:00,44.0,19.0,-100.00,SW,222,4.0,8.0,36,0.08,,,0.23,287.000000,,2013-01-08 20:43:00,
2013-01-08 15:54:00,44.0,19.0,-100.00,SW,222,4.0,8.0,36,0.08,,,0.23,287.000000,,2013-01-08 20:54:00,
2013-01-08 16:03:00,44.0,19.0,-100.00,SW,222,4.0,8.0,36,0.08,,,0.23,287.000000,,2013-01-08 21:03:00,
2013-01-08 16:33:00,40.0,20.0,-100.00,SSE,167,3.0,8.0,45,0.03,,,0.26,98.000000,,2013-01-08 21:33:00,
2013-01-08 16:43:00,40.0,20.0,-100.00,SSE,167,3.0,8.0,45,0.03,,,0.26,98.000000,,2013-01-08 21:43:00,
2013-01-08 16:53:00,40.0,20.0,-100.00,SSE,167,3.0,8.0,45,0.03,,,0.26,98.000000,,2013-01-08 21:53:00,
2013-01-08 17:04:00,40.0,20.0,-100.00,SSE,167,3.0,8.0,45,0.03,,,0.26,98.000000,,2013-01-08 22:04:00,
2013-01-08 17:33:00,38.0,20.0,-100.00,SSE,157,3.0,6.0,48,0.02,,,0.28,24.000000,,2013-01-08 22:33:00,
2013-01-08 17:43:00,38.0,20.0,-100.00,SSE,157,3.0,6.0,48,0.02,,,0.28,24.000000,,2013-01-08 22:43:00,
2013-01-08 17:53:00,38.0,20.0,-100.00,SSE,157,3.0,6.0,48,0.02,,,0.28,24.000000,,2013-01-08 22:53:00,
2013-01-08 18:03:00,38.0,20.0,-100.00,SSE,157,3.0,6.0,48,0.02,,,0.28,24.000000,,2013-01-08 23:03:00,
2013-01-08 18:33:00,36.0,21.0,-100.00,SSE,153,4.0,8.0,53,0.01,,,0.29,1.000000,,2013-01-08 23:33:00,
2013-01-08 18:43:00,36.0,21.0,-100.00,SSE,153,4.0,8.0,53,0.01,,,0.29,1.000000,,2013-01-08 23:43:00,
2013-01-08 18:53:00,36.0,21.0,-100.00,SSE,153,4.0,8.0,53,0.01,,,0.29,1.000000,,2013-01-08 23:53:00,
2013-01-08 19:03:00,36.0,21.0,-100.00,SSE,153,4.0,8.0,53,0.01,,,0.29,1.000000,,2013-01-09 00:03:00,
2013-01-08 19:33:00,35.0,20.0,-100.00,SSE,160,5.0,8.0,54,0.00,,,0.29,0.000000,,2013-01-09 00:33:00,
2013-01-08 19:43:00,35.0,20.0,-100.00,SSE,160,5.0,8.0,54,0.00,,,0.29,0.000000,,2013-01-09 00:43:00,
2013-01-08 19:53:00,35.0,20.0,-100.00,SSE,160,5.0,8.0,54,0.00,,,0.29,0.000000,,2013-01-09 00:53:00,
2013-01-08 20:02:00,35.0,20.0,-100.00,SSE,160,5.0,8.0,54,0.00,,,0.29,0.000000,,2013-01-09 01:02:00,
2013-01-08 20:33:00,34.0,20.0,-100.00,SE,140,3.0,9.0,56,0.00,,,0.29,0.000000,,2013-01-09 01:33:00,
2013-01-08 20:43:00,34.0,20.0,-100.00,SE,140,3.0,9.0,56,0.00,,,0.29,0.000000,,2013-01-09 01:43:00,
2013-01-08 20:53:00,34.0,20.0,-100.00,SE,140,3.0,9.0,56,0.00,,,0.29,0.000000,,2013-01-09 01:53:00,
2013-01-08 21:02:00,34.0,20.0,-100.00,SE,140,3.0,9.0,56,0.00,,,0.29,0.000000,,2013-01-09 02:02:00,
2013-01-08 21:33:00,33.0,21.0,-100.00,SE,142,3.0,6.0,62,0.00,,,0.29,0.000000,,2013-01-09 02:33:00,
2013-01-08 21:43:00,33.0,21.0,-100.00,SE,142,3.0,6.0,62,0.00,,,0.29,0.000000,,2013-01-09 02:43:00,
2013-01-08 21:53:00,33.0,21.0,-100.00,SE,142,3.0,6.0,62,0.00,,,0.29,0.000000,,2013-01-09 02:53:00,
2013-01-08 22:03:00,33.0,21.0,-100.00,SE,142,3.0,6.0,62,0.00,,,0.29,0.000000,,2013-01-09 03:03:00,
2013-01-08 22:33:00,33.0,23.0,-100.00,SSE,157,3.0,6.0,65,0.00,,,0.29,0.000000,,2013-01-09 03:33:00,
2013-01-08 22:43:00,33.0,23.0,-100.00,SSE,157,3.0,6.0,65,0.00,,,0.29,0.000000,,2013-01-09 03:43:00,
2013-01-08 22:53:00,33.0,23.0,-100.00,SSE,157,3.0,6.0,65,0.00,,,0.29,0.000000,,2013-01-09 03:53:00,
2013-01-08 23:02:00,33.0,23.0,-100.00,SSE,157,3.0,6.0,65,0.00,,,0.29,0.000000,,2013-01-09 04:02:00,
2013-01-08 23:33:00,32.0,23.0,-100.00,SSE,149,3.0,5.0,70,0.00,,,0.29,0.000000,,2013-01-09 04:33:00,
2013-01-08 23:43:00,32.0,23.0,-100.00,SSE,149,3.0,5.0,70,0.00,,,0.29,0.000000,,2013-01-09 04:43:00,
2013-01-08 23:53:00,32.0,23.0,-100.00,SSE,149,3.0,5.0,70,0.00,,,0.29,0.000000,,2013-01-09 04:53:00,